Location: Huisseau
(47.5933°N, 1.4533°E)
Time: 07:34:37
(UTC+00:00)

Cosmos 2315 Rocket - Pass Details

Date: 08 August 2025
Orbit: 966 x 1000 km, 82.9° (Epoch: 15 April)

Event Time Altitude Azimuth Distance (km) Brightness Sun altitude
Rises 20:12:41 0° 355° (N) 3,727 7.7 -8.8°
Reaches altitude 10° 20:15:22 10° 1° (N) 2,770 6.9 -9.2°
Maximum altitude 20:21:25 45° 73° (ENE) 1,332 4.5 -10.0°
Enters shadow 20:26:53 12° 144° (SE) 2,559 5.6 -10.7°
